Location: Walton
(43.6794°N, 81.3017°W)
Time: 14:38:47
(UTC+00:00)

SWAS - Pass Details

Date: 09 December 2025
Orbit: 539 x 544 km, 69.9° (Epoch: 19 January)

Event Time Altitude Azimuth Distance (km) Brightness Sun altitude
Exits shadow 10:34:56 84° 150° (SSE) 550 4.2 -23.1°
Drops below altitude 10° 10:38:50 10° 155° (SSE) 1,797 7.4 -22.4°
Sets 10:41:00 0° 155° (SSE) 2,683 8.3 -22.0°
